Location: Asheville, NC
(35.6000°N, 82.5500°W)
Time: 06:08:31
(UTC-04:00)

Vanguard 1 Rocket - Pass Details

Date: 10 February 2018
Orbit: 652 x 4225 km, 34.3° (Epoch: 19 May)

Event Time Altitude Azimuth Distance (km) Brightness Sun altitude
Rises 23:04:23 0° 209° (SSW) 7,028 11.9 -58.9°
Reaches altitude 10° 23:09:01 10° 203° (SSW) 6,405 11.5 -59.6°
Enters shadow 23:09:22 11° 202° (SSW) 6,362 11.5 -59.7°
Maximum altitude 23:29:49 43° 139° (SE) 5,132 - -62.7°
Exits shadow 23:51:39 11° 78° (ENE) 6,859 11.7 -65.4°
Drops below altitude 10° 23:52:08 10° 78° (ENE) 6,920 11.7 -65.4°
Sets 23:57:16 0° 72° (ENE) 7,619 12.1 -66.0°
